| time (UTC) | temp F | wind direction | speed knots | gust knots | rain 1hr in | rain 24hr in | rain mn in | humidity % | barometer mb |
| 20260906145156 | 84 | 91 | 2.6 | 5.2 | 0.00 | 0.00 | 0.00 | 67 | 1013.8 |
| 20260906144140 | 84 | 97 | 2.6 | 5.2 | 0.00 | 0.00 | 0.00 | 69 | 1013.8 |
| 20260906143123 | 83 | 110 | 2.6 | 5.2 | 0.00 | 0.00 | 0.00 | 71 | 1013.8 |
| 20260906142415 | 83 | 86 | 1.7 | 3.5 | 0.00 | 0.00 | 0.00 | 71 | 1013.8 |
| 20260906142103 | 83 | 86 | 1.7 | 3.5 | 0.00 | 0.00 | 0.00 | 71 | 1013.8 |
| 20260906141324 | 82 | 69 | 0.9 | 3.5 | 0.00 | 0.00 | 0.00 | 70 | 1013.8 |
| 20260906141047 | 82 | 69 | 0.9 | 3.5 | 0.00 | 0.00 | 0.00 | 70 | 1013.8 |
| 20260906140358 | 81 | 116 | 1.7 | 4.3 | 0.00 | 0.00 | 0.00 | 74 | 1013.8 |
| 20260906140030 | 81 | 116 | 1.7 | 4.3 | 0.00 | 0.00 | 0.00 | 74 | 1013.8 |
| 20260906134113 | 80 | 65 | 1.7 | 4.3 | 0.00 | 0.00 | 0.00 | 77 | 1013.8 |
| 20260906134018 | 80 | 65 | 1.7 | 4.3 | 0.00 | 0.00 | 0.00 | 77 | 1013.8 |
| 20260906133252 | 80 | 78 | 1.7 | 3.5 | 0.00 | 0.00 | 0.00 | 78 | 1013.8 |
| 20260906133002 | 80 | 78 | 1.7 | 3.5 | 0.00 | 0.00 | 0.00 | 78 | 1013.8 |
| 20260906132036 | 80 | 34 | 1.7 | 2.6 | 0.00 | 0.00 | 0.00 | 77 | 1013.8 |
| 20260906131946 | 80 | 34 | 1.7 | 2.6 | 0.00 | 0.00 | 0.00 | 77 | 1013.8 |
| 20260906123841 | 78 | 159 | 0.9 | 1.7 | 0.00 | 0.00 | 0.00 | 83 | 1013.8 |
| 20260906122043 | 76 | 277 | 0.9 | 0.9 | 0.00 | 0.00 | 0.00 | 87 | 1013.8 |
| 20260906121808 | 76 | 277 | 0.9 | 0.9 | 0.00 | 0.00 | 0.00 | 87 | 1013.8 |
| 20260906113706 | 75 | 114 | 0.9 | 1.7 | 0.00 | 0.00 | 0.00 | 91 | 1013.8 |
| 20260906112733 | 75 | 133 | 0.9 | 0.9 | 0.00 | 0.00 | 0.00 | 91 | 1013.8 |
| 20260906112650 | 75 | 133 | 0.9 | 0.9 | 0.00 | 0.00 | 0.00 | 91 | 1013.8 |
| 20260906111706 | 75 | 238 | 0.9 | 0.9 | 0.00 | 0.00 | 0.00 | 90 | 1013.8 |
| 20260906111633 | 75 | 238 | 0.9 | 0.9 | 0.00 | 0.00 | 0.00 | 90 | 1013.8 |
| 20260906105649 | 75 | 272 | 0.9 | 0.9 | 0.00 | 0.00 | 0.00 | 90 | 1013.8 |
| 20260906105559 | 75 | 272 | 0.9 | 0.9 | 0.00 | 0.00 | 0.00 | 90 | 1013.8 |
| 20260906104740 | 75 | 30 | 0.9 | 1.7 | 0.00 | 0.00 | 0.00 | 90 | 1013.8 |
| 20260906104543 | 75 | 30 | 0.9 | 1.7 | 0.00 | 0.00 | 0.00 | 90 | 1013.8 |
| 20260906103859 | 75 | 6 | 0.9 | 1.7 | 0.00 | 0.00 | 0.00 | 90 | 1013.8 |
| 20260906103653 | 75 | 6 | 0.9 | 1.7 | 0.00 | 0.00 | 0.00 | 90 | 1013.8 |
| 20260906103528 | 75 | 6 | 0.9 | 1.7 | 0.00 | 0.00 | 0.00 | 90 | 1013.8 |
| 20260906102512 | 75 | 106 | 0.9 | 0.9 | 0.00 | 0.00 | 0.00 | 91 | 1013.8 |
| 20260906101455 | 75 | 263 | 0.9 | 0.9 | 0.00 | 0.00 | 0.00 | 89 | 1013.8 |
| 20260906100438 | 76 | 307 | 0.9 | 1.7 | 0.00 | 0.00 | 0.00 | 89 | 1013.8 |
| 20260906091316 | 75 | 284 | 0.9 | 1.7 | 0.00 | 0.00 | 0.00 | 87 | 1013.8 |
| 20260906085035 | 75 | 238 | 0.9 | 0.9 | 0.00 | 0.00 | 0.00 | 87 | 1013.6 |
| 20260906084022 | 75 | 315 | 0.9 | 0.9 | 0.00 | 0.00 | 0.00 | 86 | 1013.6 |
| 20260906083006 | 75 | 275 | 0.9 | 0.9 | 0.00 | 0.00 | 0.00 | 85 | 1013.6 |
| 20260906081950 | 75 | 277 | 0.9 | 0.9 | 0.00 | 0.00 | 0.00 | 86 | 1013.6 |
| 20260906073858 | 74 | 287 | 0.9 | 1.7 | 0.00 | 0.00 | 0.00 | 86 | 1013.3 |
| 20260906072845 | 74 | 167 | 0.9 | 0.9 | 0.00 | 0.00 | 0.00 | 86 | 1013.3 |
| 20260906070809 | 74 | 188 | 0.9 | 0.9 | 0.00 | 0.00 | 0.00 | 86 | 1013.3 |
| 20260906065753 | 74 | 189 | 0.0 | 0.9 | 0.00 | 0.00 | 0.00 | 86 | 1013.3 |
| 20260906064736 | 74 | 178 | 0.9 | 0.9 | 0.00 | 0.00 | 0.00 | 85 | 1013.3 |
| 20260906063720 | 74 | 205 | 0.9 | 0.9 | 0.00 | 0.00 | 0.00 | 84 | 1013.3 |
| 20260906062703 | 75 | 179 | 0.0 | 0.9 | 0.00 | 0.00 | 0.00 | 84 | 1013.3 |
| 20260906061646 | 75 | 296 | 0.9 | 0.9 | 0.00 | 0.00 | 0.00 | 83 | 1013.3 |
| 20260906055616 | 75 | 304 | 0.9 | 0.9 | 0.00 | 0.00 | 0.00 | 83 | 1013.3 |
| 20260906053532 | 75 | 171 | 0.0 | 0.9 | 0.00 | 0.00 | 0.00 | 83 | 1013.3 |
| 20260906052515 | 76 | 270 | 0.9 | 0.9 | 0.00 | 0.00 | 0.00 | 82 | 1013.3 |
| 20260906051459 | 76 | 259 | 0.9 | 0.9 | 0.00 | 0.00 | 0.00 | 81 | 1013.3 |
| 20260906045427 | 76 | 207 | 0.9 | 0.9 | 0.00 | 0.00 | 0.00 | 80 | 1013.3 |
| 20260906044410 | 76 | 334 | 0.9 | 0.9 | 0.00 | 0.00 | 0.00 | 79 | 1013.3 |
| 20260906043354 | 76 | 232 | 0.9 | 0.9 | 0.00 | 0.00 | 0.00 | 79 | 1013.3 |
| 20260906042338 | 77 | 205 | 0.9 | 0.9 | 0.00 | 0.00 | 0.00 | 80 | 1013.3 |
| 20260906041322 | 77 | 134 | 0.9 | 0.9 | 0.00 | 0.00 | 0.00 | 79 | 1013.3 |
| 20260906040305 | 77 | 222 | 0.9 | 0.9 | 0.00 | 0.00 | 0.00 | 80 | 1013.3 |
| 20260906035249 | 77 | 244 | 0.9 | 0.9 | 0.00 | 0.00 | 0.00 | 79 | 1013.3 |
| 20260906033215 | 77 | 147 | 0.9 | 0.9 | 0.00 | 0.00 | 0.00 | 79 | 1013.3 |
| 20260906032157 | 78 | 208 | 0.9 | 0.9 | 0.00 | 0.00 | 0.00 | 79 | 1013.3 |
| 20260906031141 | 78 | 59 | 0.9 | 0.9 | 0.00 | 0.00 | 0.00 | 78 | 1013.3 |
| 20260906030125 | 78 | 304 | 0.9 | 0.9 | 0.00 | 0.00 | 0.00 | 76 | 1013.3 |
| 20260906025105 | 79 | 252 | 0.9 | 1.7 | 0.00 | 0.00 | 0.00 | 76 | 1013.3 |
| 20260906024048 | 79 | 165 | 0.9 | 1.7 | 0.00 | 0.00 | 0.00 | 76 | 1013.3 |
| 20260906023029 | 79 | 270 | 0.9 | 0.9 | 0.00 | 0.00 | 0.00 | 73 | 1013.3 |
| 20260906022009 | 79 | 132 | 0.9 | 0.9 | 0.00 | 0.00 | 0.00 | 74 | 1013.3 |
| 20260906020950 | 79 | 140 | 0.9 | 0.9 | 0.00 | 0.00 | 0.00 | 74 | 1013.3 |
| 20260906015934 | 80 | 156 | 0.9 | 1.7 | 0.00 | 0.00 | 0.00 | 73 | 1013.3 |
| 20260906014912 | 81 | 185 | 0.0 | 0.9 | 0.00 | 0.00 | 0.00 | 70 | 1013.3 |
| 20260906013853 | 81 | 186 | 0.9 | 0.9 | 0.00 | 0.00 | 0.00 | 69 | 1013.3 |
| 20260906012836 | 82 | 178 | 0.9 | 0.9 | 0.00 | 0.00 | 0.00 | 68 | 1013.3 |
| 20260906011818 | 83 | 235 | 0.9 | 0.9 | 0.00 | 0.00 | 0.00 | 67 | 1013.3 |
| 20260906010802 | 83 | 301 | 0.9 | 1.7 | 0.00 | 0.00 | 0.00 | 65 | 1013.3 |
| 20260906005746 | 84 | 331 | 0.9 | 1.7 | 0.00 | 0.00 | 0.00 | 64 | 1013.3 |
| 20260906004730 | 85 | 289 | 0.9 | 1.7 | 0.00 | 0.00 | 0.00 | 62 | 1013.3 |
| 20260906003713 | 86 | 195 | 0.9 | 0.9 | 0.00 | 0.00 | 0.00 | 60 | 1013.3 |
| 20260906002652 | 87 | 319 | 0.9 | 2.6 | 0.00 | 0.00 | 0.00 | 58 | 1013.3 |
| 20260906001635 | 88 | 28 | 0.9 | 1.7 | 0.00 | 0.00 | 0.00 | 56 | 1013.3 |
| 20260906000616 | 89 | 287 | 0.9 | 1.7 | 0.00 | 0.00 | 0.00 | 54 | 1013.3 |
| 20260905235558 | 90 | 258 | 0.9 | 1.7 | 0.00 | 0.00 | 0.00 | 51 | 1013.3 |
| 20260905234541 | 91 | 203 | 0.9 | 1.7 | 0.00 | 0.00 | 0.00 | 49 | 1013.3 |
| 20260905233525 | 91 | 106 | 0.9 | 2.6 | 0.00 | 0.00 | 0.00 | 48 | 1013.3 |
| 20260905232509 | 92 | 189 | 0.9 | 4.3 | 0.00 | 0.00 | 0.00 | 48 | 1013.3 |
| 20260905231453 | 93 | 213 | 0.9 | 1.7 | 0.00 | 0.00 | 0.00 | 47 | 1013.3 |
| 20260905225423 | 93 | 144 | 4.3 | 8.7 | 0.00 | 0.00 | 0.00 | 43 | 1013.3 |
| 20260905224406 | 94 | 147 | 4.3 | 10.4 | 0.00 | 0.00 | 0.00 | 42 | 1013.3 |
| 20260905223350 | 96 | 130 | 3.5 | 10.4 | 0.00 | 0.00 | 0.00 | 41 | 1013.3 |
| 20260905222334 | 98 | 145 | 0.9 | 2.6 | 0.00 | 0.00 | 0.00 | 35 | 1013.3 |
| 20260905221318 | 98 | 332 | 0.9 | 2.6 | 0.00 | 0.00 | 0.00 | 37 | 1013.3 |
| 20260905220259 | 99 | 316 | 0.9 | 2.6 | 0.00 | 0.00 | 0.00 | 38 | 1013.3 |
| 20260905215243 | 100 | 296 | 0.9 | 3.5 | 0.00 | 0.00 | 0.00 | 37 | 1013.3 |
| 20260905214226 | 101 | 254 | 0.9 | 4.3 | 0.00 | 0.00 | 0.00 | 35 | 1013.3 |
| 20260905213209 | 102 | 343 | 0.9 | 4.3 | 0.00 | 0.00 | 0.00 | 33 | 1013.3 |
| 20260905212153 | 102 | 259 | 0.9 | 4.3 | 0.00 | 0.00 | 0.00 | 33 | 1013.3 |
| 20260905211136 | 103 | 326 | 0.9 | 3.5 | 0.00 | 0.00 | 0.00 | 33 | 1013.3 |
| 20260905210119 | 103 | 319 | 0.9 | 3.5 | 0.00 | 0.00 | 0.00 | 34 | 1013.3 |
| 20260905205102 | 104 | 290 | 0.9 | 4.3 | 0.00 | 0.00 | 0.00 | 32 | 1013.3 |
| 20260905204043 | 104 | 331 | 0.9 | 3.5 | 0.00 | 0.00 | 0.00 | 31 | 1013.3 |
| 20260905203027 | 104 | 339 | 0.9 | 2.6 | 0.00 | 0.00 | 0.00 | 31 | 1013.3 |
| 20260905202011 | 104 | 213 | 1.7 | 4.3 | 0.00 | 0.00 | 0.00 | 32 | 1013.3 |
| 20260905195941 | 103 | 329 | 1.7 | 5.2 | 0.00 | 0.00 | 0.00 | 32 | 1013.3 |
| 20260905194925 | 103 | 22 | 1.7 | 5.2 | 0.00 | 0.00 | 0.00 | 33 | 1013.3 |
| 20260905193908 | 104 | 38 | 1.7 | 3.5 | 0.00 | 0.00 | 0.00 | 31 | 1013.3 |
| 20260905192851 | 104 | 233 | 1.7 | 3.5 | 0.00 | 0.00 | 0.00 | 31 | 1013.3 |
| 20260905191833 | 102 | 41 | 1.7 | 4.3 | 0.00 | 0.00 | 0.00 | 32 | 1013.3 |
| 20260905190817 | 102 | 314 | 0.9 | 4.3 | 0.00 | 0.00 | 0.00 | 35 | 1013.3 |
| 20260905185801 | 103 | 346 | 0.9 | 5.2 | 0.00 | 0.00 | 0.00 | 33 | 1013.3 |
| 20260905184744 | 104 | 352 | 1.7 | 4.3 | 0.00 | 0.00 | 0.00 | 30 | 1013.3 |
| 20260905183728 | 103 | 175 | 1.7 | 5.2 | 0.00 | 0.00 | 0.00 | 35 | 1013.3 |
| 20260905182712 | 104 | 252 | 1.7 | 3.5 | 0.00 | 0.00 | 0.00 | 32 | 1013.3 |
| 20260905181656 | 103 | 263 | 1.7 | 4.3 | 0.00 | 0.00 | 0.00 | 34 | 1013.3 |
| 20260905180640 | 103 | 160 | 0.9 | 3.5 | 0.00 | 0.00 | 0.00 | 34 | 1013.3 |
| 20260905175624 | 103 | 218 | 1.7 | 4.3 | 0.00 | 0.00 | 0.00 | 37 | 1013.3 |
| 20260905174607 | 103 | 209 | 1.7 | 5.2 | 0.00 | 0.00 | 0.00 | 34 | 1013.3 |
| 20260905173550 | 101 | 56 | 1.7 | 4.3 | 0.00 | 0.00 | 0.00 | 37 | 1013.3 |
| 20260905172534 | 102 | 232 | 1.7 | 5.2 | 0.00 | 0.00 | 0.00 | 38 | 1013.3 |
| 20260905171512 | 101 | 209 | 0.9 | 2.6 | 0.00 | 0.00 | 0.00 | 39 | 1013.3 |
| 20260905170456 | 101 | 216 | 1.7 | 3.5 | 0.00 | 0.00 | 0.00 | 40 | 1013.3 |
| 20260905165440 | 101 | 289 | 0.9 | 3.5 | 0.00 | 0.00 | 0.00 | 38 | 1013.3 |
| 20260905164424 | 100 | 237 | 1.7 | 4.3 | 0.00 | 0.00 | 0.00 | 40 | 1013.3 |
| 20260905163407 | 100 | 236 | 1.7 | 3.5 | 0.00 | 0.00 | 0.00 | 41 | 1013.3 |
| 20260905162352 | 100 | 211 | 0.9 | 3.5 | 0.00 | 0.00 | 0.00 | 40 | 1013.3 |
| 20260905161336 | 99 | 225 | 0.9 | 2.6 | 0.00 | 0.00 | 0.00 | 42 | 1013.3 |
| 20260905160319 | 98 | 281 | 1.7 | 6.1 | 0.00 | 0.00 | 0.00 | 43 | 1013.3 |
| 20260905155306 | 99 | 279 | 0.9 | 3.5 | 0.00 | 0.00 | 0.00 | 43 | 1013.3 |
| 20260905154247 | 98 | 275 | 0.9 | 3.5 | 0.00 | 0.00 | 0.00 | 44 | 1013.3 |
| 20260905153229 | 97 | 232 | 0.9 | 3.5 | 0.00 | 0.00 | 0.00 | 44 | 1013.3 |
| 20260905151157 | 95 | 7 | 0.9 | 2.6 | 0.00 | 0.00 | 0.00 | 48 | 1013.3 |
| 20260905150140 | 94 | 327 | 1.7 | 5.2 | 0.00 | 0.00 | 0.00 | 48 | 1013.3 |